• In United Kingdom
  • List of Countries
  • For 7 days
  • Water Temperature
  • Satellite Maps
  • Weather Map
  • Weather Widgets
  • user-avatar
    Login

    Hourly Weather Djelfa

    Today, 24 September, Monday

    Time Temperature Precipitation Wind Pressure Humidity
    00:00 +23°C° 0 mm 1 mps 670 mmHg 42%
    01:00 +21°C° 0 mm 0 mps 669 mmHg 43%
    02:00 +20°C° 0 mm 0 mps 669 mmHg 44%
    03:00 +20°C° 0 mm 0 mps 669 mmHg 46%
    04:00 +20°C° 0 mm 0 mps 669 mmHg 47%
    05:00 +19°C° 0 mm 0 mps 669 mmHg 48%
    06:00 +19°C° 0 mm 0 mps 669 mmHg 48%
    07:00 +21°C° 0 mm 0 mps 670 mmHg 44%
    08:00 +24°C° 0 mm 1 mps 670 mmHg 39%
    09:00 +25°C° 0 mm 1 mps 670 mmHg 34%
    10:00 +26°C° 0 mm 1 mps 670 mmHg 32%
    11:00 +27°C° 0 mm 1 mps 670 mmHg 30%
    12:00 +28°C° 0 mm 1 mps 671 mmHg 26%
    13:00 +28°C° 0 mm 1 mps 670 mmHg 25%
    14:00 +29°C° 0 mm 1 mps 670 mmHg 25%
    15:00 +29°C° 0 mm 1 mps 670 mmHg 24%
    16:00 +29°C° 0 mm 2 mps 670 mmHg 25%
    17:00 +28°C° 0 mm 2 mps 670 mmHg 26%
    18:00 +28°C° 0 mm 3 mps 670 mmHg 27%
    19:00 +27°C° 0 mm 2 mps 670 mmHg 30%
    20:00 +27°C° 0 mm 2 mps 670 mmHg 32%
    21:00 +26°C° 0 mm 2 mps 670 mmHg 34%
    22:00 +25°C° 0 mm 2 mps 670 mmHg 35%
    23:00 +25°C° 0 mm 2 mps 670 mmHg 36%

    Tomorrow, 25 September, Tuesday

    Time Temperature Precipitation Wind Pressure Humidity
    00:00 +24°C° 0 mm 2 mps 670 mmHg 37%
    01:00 +24°C° 0 mm 1 mps 669 mmHg 39%
    02:00 +23°C° 0 mm 1 mps 669 mmHg 40%
    03:00 +23°C° 0 mm 1 mps 669 mmHg 42%
    04:00 +22°C° 0 mm 1 mps 669 mmHg 43%
    05:00 +22°C° 0 mm 1 mps 669 mmHg 44%
    06:00 +22°C° 0 mm 1 mps 669 mmHg 45%
    07:00 +23°C° 0 mm 1 mps 669 mmHg 41%
    08:00 +24°C° 0 mm 1 mps 670 mmHg 36%
    09:00 +26°C° 0 mm 1 mps 671 mmHg 32%
    10:00 +27°C° 0 mm 1 mps 671 mmHg 30%
    11:00 +28°C° 0 mm 1 mps 671 mmHg 28%
    12:00 +29°C° 0 mm 2 mps 671 mmHg 26%
    13:00 +29°C° 0 mm 2 mps 670 mmHg 26%
    14:00 +29°C° 0 mm 2 mps 670 mmHg 25%
    15:00 +29°C° 0 mm 2 mps 670 mmHg 25%
    16:00 +29°C° 0 mm 3 mps 670 mmHg 26%
    17:00 +28°C° 0 mm 3 mps 670 mmHg 27%
    18:00 +28°C° 0 mm 4 mps 670 mmHg 28%
    19:00 +27°C° 0.1 mm 4 mps 670 mmHg 31%
    20:00 +27°C° 0.1 mm 4 mps 670 mmHg 34%
    21:00 +26°C° 0.1 mm 4 mps 671 mmHg 37%
    22:00 +25°C° 0 mm 4 mps 670 mmHg 40%
    23:00 +25°C° 0 mm 4 mps 670 mmHg 43%

    Day after tomorrow, 26 September, Wednesday

    Time Temperature Precipitation Wind Pressure Humidity
    00:00 +24°C° 0 mm 3 mps 670 mmHg 47%
    01:00 +22°C° 0 mm 3 mps 670 mmHg 49%
    02:00 +23°C° 0 mm 2 mps 670 mmHg 51%
    03:00 +21°C° 0 mm 2 mps 669 mmHg 53%
    04:00 +21°C° 0 mm 2 mps 670 mmHg 54%
    05:00 +21°C° 0 mm 2 mps 670 mmHg 55%
    06:00 +20°C° 0 mm 2 mps 670 mmHg 56%
    07:00 +21°C° 0.1 mm 2 mps 670 mmHg 52%
    08:00 +24°C° 0.1 mm 3 mps 671 mmHg 48%
    09:00 +25°C° 0.1 mm 3 mps 672 mmHg 44%
    10:00 +25°C° 0 mm 3 mps 671 mmHg 41%
    11:00 +26°C° 0 mm 3 mps 671 mmHg 38%
    12:00 +27°C° 0 mm 3 mps 671 mmHg 35%
    13:00 +27°C° 0 mm 3 mps 671 mmHg 34%
    14:00 +27°C° 0 mm 2 mps 671 mmHg 34%
    15:00 +27°C° 0 mm 2 mps 670 mmHg 33%
    16:00 +27°C° 0.2 mm 2 mps 670 mmHg 35%
    17:00 +26°C° 0.2 mm 3 mps 671 mmHg 37%
    18:00 +26°C° 0.2 mm 3 mps 671 mmHg 39%
    19:00 +25°C° 1.1 mm 3 mps 671 mmHg 43%
    20:00 +23°C° 1.1 mm 4 mps 671 mmHg 47%
    21:00 +23°C° 1.1 mm 4 mps 671 mmHg 51%
    22:00 +22°C° 1.6 mm 5 mps 671 mmHg 56%
    23:00 +21°C° 1.6 mm 6 mps 671 mmHg 60%

    27 September, Thursday

    Time Temperature Precipitation Wind Pressure Humidity
    00:00 +20°C° 1.6 mm 6 mps 671 mmHg 65%
    01:00 +20°C° 0.5 mm 6 mps 671 mmHg 67%
    02:00 +20°C° 0.5 mm 6 mps 671 mmHg 68%
    03:00 +19°C° 0.5 mm 6 mps 671 mmHg 70%
    04:00 +19°C° 0.6 mm 5 mps 671 mmHg 72%
    05:00 +19°C° 0.6 mm 5 mps 671 mmHg 75%
    06:00 +17°C° 0.6 mm 5 mps 671 mmHg 77%
    07:00 +19°C° 0.6 mm 5 mps 672 mmHg 73%
    08:00 +20°C° 0.6 mm 5 mps 672 mmHg 69%
    09:00 +20°C° 0.6 mm 5 mps 672 mmHg 65%
    10:00 +21°C° 0.3 mm 5 mps 672 mmHg 61%
    11:00 +22°C° 0.3 mm 5 mps 672 mmHg 58%
    12:00 +22°C° 0.3 mm 5 mps 672 mmHg 55%
    13:00 +22°C° 0.1 mm 5 mps 672 mmHg 53%
    14:00 +23°C° 0.1 mm 5 mps 671 mmHg 52%
    15:00 +23°C° 0.1 mm 4 mps 671 mmHg 50%
    16:00 +22°C° 0 mm 4 mps 671 mmHg 51%
    17:00 +22°C° 0 mm 4 mps 671 mmHg 52%
    18:00 +22°C° 0 mm 4 mps 671 mmHg 52%
    19:00 +21°C° 0 mm 4 mps 671 mmHg 54%
    20:00 +21°C° 0 mm 4 mps 671 mmHg 55%
    21:00 +20°C° 0 mm 3 mps 671 mmHg 57%
    22:00 +20°C° 0 mm 3 mps 671 mmHg 58%
    23:00 +19°C° 0 mm 2 mps 670 mmHg 60%

    28 September, Friday

    Time Temperature Precipitation Wind Pressure Humidity
    00:00 +19°C° 0 mm 2 mps 670 mmHg 61%
    01:00 +20°C° 0 mm 1 mps 670 mmHg 62%
    02:00 +19°C° 0 mm 1 mps 669 mmHg 63%
    03:00 +19°C° 0 mm 1 mps 669 mmHg 64%
    04:00 +19°C° 0 mm 1 mps 669 mmHg 65%
    05:00 +19°C° 0 mm 1 mps 669 mmHg 66%
    06:00 +18°C° 0 mm 1 mps 669 mmHg 67%
    07:00 +19°C° 0 mm 1 mps 669 mmHg 62%
    08:00 +20°C° 0 mm 1 mps 670 mmHg 58%
    09:00 +21°C° 0 mm 1 mps 670 mmHg 54%
    10:00 +22°C° 0 mm 1 mps 670 mmHg 51%
    11:00 +23°C° 0 mm 1 mps 670 mmHg 48%
    12:00 +24°C° 0 mm 1 mps 670 mmHg 45%
    13:00 +24°C° 0 mm 1 mps 669 mmHg 44%
    14:00 +24°C° 0 mm 1 mps 669 mmHg 43%
    15:00 +25°C° 0 mm 1 mps 668 mmHg 42%
    16:00 +25°C° 0 mm 1 mps 668 mmHg 42%
    17:00 +24°C° 0 mm 1 mps 668 mmHg 42%
    18:00 +24°C° 0 mm 1 mps 668 mmHg 43%
    19:00 +24°C° 0 mm 2 mps 668 mmHg 44%
    20:00 +24°C° 0 mm 2 mps 669 mmHg 46%
    21:00 +23°C° 0 mm 2 mps 669 mmHg 47%
    22:00 +23°C° 0 mm 2 mps 668 mmHg 49%
    23:00 +21°C° 0 mm 2 mps 668 mmHg 51%

    29 September, Saturday

    Time Temperature Precipitation Wind Pressure Humidity
    00:00 +21°C° 0 mm 2 mps 668 mmHg 53%
    01:00 +20°C° 0 mm 2 mps 667 mmHg 54%
    02:00 +21°C° 0 mm 1 mps 667 mmHg 55%
    03:00 +20°C° 0 mm 1 mps 667 mmHg 56%
    04:00 +20°C° 0 mm 1 mps 667 mmHg 57%
    05:00 +20°C° 0 mm 1 mps 667 mmHg 57%
    06:00 +20°C° 0 mm 1 mps 667 mmHg 58%
    07:00 +21°C° 0 mm 1 mps 667 mmHg 53%
    08:00 +22°C° 0 mm 1 mps 668 mmHg 49%
    09:00 +23°C° 0 mm 1 mps 668 mmHg 44%
    10:00 +24°C° 0 mm 1 mps 668 mmHg 42%
    11:00 +24°C° 0 mm 1 mps 668 mmHg 40%
    12:00 +25°C° 0 mm 1 mps 668 mmHg 37%
    13:00 +25°C° 0 mm 1 mps 668 mmHg 36%
    14:00 +26°C° 0 mm 1 mps 667 mmHg 35%
    15:00 +26°C° 0 mm 1 mps 667 mmHg 33%
    16:00 +26°C° 0 mm 2 mps 667 mmHg 34%
    17:00 +26°C° 0 mm 2 mps 667 mmHg 34%
    18:00 +25°C° 0 mm 2 mps 668 mmHg 35%
    19:00 +25°C° 0 mm 2 mps 668 mmHg 36%
    20:00 +25°C° 0 mm 3 mps 668 mmHg 37%
    21:00 +24°C° 0 mm 3 mps 668 mmHg 39%
    22:00 +22°C° 0 mm 3 mps 668 mmHg 40%
    23:00 +22°C° 0 mm 3 mps 668 mmHg 41%
    Show more